Weather History for KDVN - February, 2012

Change the Weather History Date:

Thursday, February 23, 2012

  Actual Average Record
Temperature  
Mean Temperature 32 °F 29 °F  
Max Temperature 36 °F 37 °F 57 °F (1977)
Min Temperature 27 °F 21 °F -13 °F (2015)
Degree Days  
Heating Degree Days 33 36  
Month to date heating degree days 788 915  
Since 1 July heating degree days 4173 4851  
Cooling Degree Days 0 0  
Month to date cooling degree days 0 0  
Year to date cooling degree days 0 0  
Moisture  
Dew Point 30 °F    
Average Humidity 87    
Maximum Humidity 92    
Minimum Humidity 82    
Precipitation  
Precipitation 0.43 in 0.06 in 0.88 in (1981)
Month to date precipitation 1.23 1.04  
Year to date precipitation 1.92 2.23  
Snow  
Snow 0.80 in - - ()
Month to date snowfall 3.5  
Since 1 July snowfall 16.3  
Snow Depth 0.00 in    
Sea Level Pressure  
Sea Level Pressure 29.47 in    
Wind  
Wind Speed 9 mph (ENE)    
Max Wind Speed 22 mph    
Max Gust Speed 25 mph    
Visibility 3 miles    
Events Rain , Snow    
T = Trace of Precipitation, MM = Missing Value Source: NWS Daily Summary

Daily Weather History Graph

Daily Weather History Graph

Search for Another Location

Airport or City:

Trip Planner

Search our weather history database for the weather conditions in past years. The results will help you decide how hot, cold, wet, or windy it might be!

Date:

Astronomy

Feb. 23, 2012 Rise Set
Actual Time 6:47 AM CST 5:45 PM CST
Civil Twilight 6:18 AM CST 6:13 PM CST
Nautical Twilight 5:46 AM CST 6:45 PM CST
Astronomical Twilight 5:14 AM CST 7:17 PM CST
Moon 7:11 AM CST (2/23) 7:53 PM CST (2/23)
Length of Visible Light 11h 54m
Length of Day
10h 58m
Waxing Crescent, 3% of the Moon is Illuminated
Feb 23
Waxing Crescent
Feb 29
First Quarter
Mar 8
Full
Mar 14
Last Quarter
Mar 22
New

Hourly Weather History & Observations

Time (CST) Temp. Windchill Dew Point Humidity Pressure Visibility Wind Dir Wind Speed Gust Speed Precip Events Conditions
12:52 AM 30.0 °F - 27.0 °F 88% 29.48 in 8.0 mi Calm Calm - N/A   Clear
1:52 AM 30.0 °F - 26.1 °F 85% 29.49 in 8.0 mi Calm Calm - N/A   Clear
2:52 AM 28.0 °F 22.8 °F 25.0 °F 88% 29.47 in 6.0 mi SE 4.6 mph - N/A   Clear
3:52 AM 30.0 °F 22.4 °F 26.1 °F 85% 29.49 in 6.0 mi South 8.1 mph - N/A   Clear
4:52 AM 28.9 °F 23.9 °F 25.0 °F 85% 29.49 in 6.0 mi East 4.6 mph - N/A   Clear
5:52 AM 30.0 °F 23.2 °F 26.1 °F 85% 29.47 in 5.0 mi NE 6.9 mph - N/A   Mostly Cloudy
6:52 AM 32.0 °F 24.8 °F 28.0 °F 85% 29.47 in 5.0 mi ENE 8.1 mph - N/A   Mostly Cloudy
7:17 AM 32.0 °F 24.8 °F 28.4 °F 87% 29.45 in 2.5 mi East 8.1 mph - N/A   Scattered Clouds
7:26 AM 32.0 °F 24.8 °F 28.4 °F 87% 29.45 in 4.0 mi ESE 8.1 mph - N/A   Mostly Cloudy
7:52 AM 33.1 °F 25.5 °F 28.9 °F 85% 29.47 in 3.0 mi East 9.2 mph - N/A   Mostly Cloudy
8:52 AM 33.1 °F 26.1 °F 28.9 °F 85% 29.49 in 4.0 mi ESE 8.1 mph - N/A   Overcast
9:52 AM 35.1 °F 29.3 °F 30.0 °F 82% 29.50 in 5.0 mi ESE 6.9 mph - N/A   Haze
10:52 AM 34.0 °F 26.6 °F 30.9 °F 89% 29.49 in 3.0 mi ENE 9.2 mph - 0.02 in Rain Light Rain
11:08 AM 35.6 °F 29.2 °F 30.2 °F 81% 29.47 in 2.5 mi East 8.1 mph - 0.00 in Rain Light Rain
11:28 AM 33.8 °F 27.7 °F 30.2 °F 87% 29.47 in 1.8 mi ENE 6.9 mph - 0.05 in Rain Rain
11:52 AM 34.0 °F 28.8 °F 30.9 °F 89% 29.50 in 1.5 mi NE 5.8 mph - 0.11 in Rain Rain
12:40 PM 35.6 °F 28.0 °F 32.0 °F 87% 29.44 in 1.8 mi ENE 10.4 mph - 0.05 in Rain Light Rain
12:52 PM 35.1 °F 29.3 °F 32.0 °F 89% 29.47 in 2.0 mi East 6.9 mph - 0.05 in Rain Light Rain
1:03 PM 35.6 °F 29.2 °F 33.8 °F 93% 29.44 in 1.8 mi East 8.1 mph - 0.01 in Rain Rain
1:30 PM 35.6 °F 30.7 °F 33.8 °F 93% 29.46 in 2.0 mi ENE 5.8 mph - 0.03 in Rain Light Rain
1:47 PM 35.6 °F 29.9 °F 33.8 °F 93% 29.45 in 1.8 mi ENE 6.9 mph - 0.06 in Rain Light Rain
1:52 PM 36.0 °F 29.6 °F 33.1 °F 89% 29.47 in 1.8 mi ENE 8.1 mph - 0.06 in Rain Light Rain
2:20 PM 35.6 °F 28.6 °F 33.8 °F 93% 29.44 in 2.0 mi ENE 9.2 mph - 0.02 in Rain Light Rain
2:42 PM 35.6 °F 28.0 °F 33.8 °F 93% 29.45 in 2.5 mi East 10.4 mph - 0.03 in   Overcast
2:52 PM 36.0 °F 28.5 °F 33.1 °F 89% 29.46 in 2.5 mi East 10.4 mph - 0.03 in   Overcast
3:18 PM 35.6 °F 27.1 °F 33.8 °F 93% 29.42 in 3.0 mi East 12.7 mph - 0.00 in Rain Light Rain
3:52 PM 36.0 °F 28.5 °F 33.1 °F 89% 29.45 in 3.0 mi NE 10.4 mph - 0.01 in   Overcast
4:01 PM 35.6 °F 27.5 °F 33.8 °F 93% 29.43 in 2.5 mi NE 11.5 mph - 0.00 in Rain Light Rain
4:38 PM 35.6 °F 26.2 °F 32.0 °F 87% 29.42 in 2.5 mi NE 15.0 mph - 0.01 in Rain Light Rain
4:52 PM 34.0 °F 25.5 °F 30.9 °F 89% 29.46 in 1.8 mi NE 11.5 mph - 0.01 in   Overcast
5:18 PM 33.8 °F 24.3 °F 30.2 °F 87% 29.44 in 2.5 mi NE 13.8 mph - 0.00 in Rain Light Rain
5:27 PM 33.8 °F 24.3 °F 30.2 °F 87% 29.44 in 3.0 mi NE 13.8 mph - 0.00 in Rain Light Rain
5:52 PM 33.1 °F 24.9 °F 30.0 °F 89% 29.48 in 3.0 mi NE 10.4 mph - 0.01 in Rain Light Rain
6:33 PM 33.8 °F 24.8 °F 30.2 °F 87% 29.47 in 2.5 mi NE 12.7 mph - 0.02 in Rain Light Rain
6:52 PM 33.1 °F 23.0 °F 30.0 °F 89% 29.49 in 2.0 mi NE 15.0 mph - 0.02 in   Overcast
7:20 PM 33.8 °F 23.5 °F 30.2 °F 87% 29.48 in 3.0 mi NE 16.1 mph - 0.01 in Rain Light Freezing Rain
7:34 PM 33.8 °F 23.5 °F 30.2 °F 87% 29.48 in 2.5 mi NE 16.1 mph - 0.01 in Rain Light Freezing Rain
7:52 PM 33.1 °F 21.9 °F 30.0 °F 89% 29.51 in 2.5 mi NNE 18.4 mph - 0.01 in Snow Light Snow
8:09 PM 33.8 °F 23.9 °F 30.2 °F 87% 29.48 in 1.5 mi NNE 15.0 mph - 0.01 in Snow Light Snow
8:52 PM 33.1 °F 23.0 °F 30.0 °F 89% 29.51 in 1.2 mi NNE 15.0 mph - 0.03 in Snow Light Snow
9:52 PM 33.1 °F 22.6 °F 30.0 °F 89% 29.50 in 1.2 mi NE 16.1 mph - 0.03 in Snow Light Snow
10:52 PM 33.1 °F 21.9 °F 30.0 °F 89% 29.49 in 1.0 mi NE 18.4 mph - 0.02 in Snow Light Snow
11:52 PM 33.1 °F 23.0 °F 30.0 °F 89% 29.50 in 1.2 mi NNE 15.0 mph - 0.01 in Snow Light Snow